timestamp,wind_dir_avg,wind_spd_avg,wind_spd_max_dir,wind_spd_gust,battery_voltage,lat,long
2023-07-17 00:04:00+00:00,231.0,9.26,241.0,11.37,12.89,47.59359,-54.27349
2023-07-17 00:14:00+00:00,210.0,6.79,228.0,9.24,12.41,47.59359,-54.27349
2023-07-17 00:24:00+00:00,208.0,5.47,210.0,6.58,12.41,47.59359,-54.27349
2023-07-17 00:34:00+00:00,217.0,5.53,219.0,6.75,12.41,47.59359,-54.27349
2023-07-17 00:44:00+00:00,213.0,6.11,225.0,7.77,12.41,47.59359,-54.27349
2023-07-17 00:54:00+00:00,207.0,5.56,209.0,6.46,12.41,47.59359,-54.27349
2023-07-17 01:04:00+00:00,205.0,4.54,204.0,5.34,12.41,47.59359,-54.27349
2023-07-17 01:14:01+00:00,204.0,5.07,207.0,5.55,12.41,47.59359,-54.27349
2023-07-17 01:24:01+00:00,209.0,6.14,211.0,6.87,12.41,47.59359,-54.27349
2023-07-17 01:34:01+00:00,204.0,5.58,204.0,6.17,12.41,47.59359,-54.27349
2023-07-17 01:44:01+00:00,211.0,6.18,217.0,6.86,12.41,47.59359,-54.27349
2023-07-17 01:54:01+00:00,216.0,7.08,225.0,8.32,12.41,47.59359,-54.27349
2023-07-17 02:04:01+00:00,210.0,6.27,216.0,7.15,12.41,47.59359,-54.27349
2023-07-17 02:14:00+00:00,206.0,5.66,205.0,6.39,12.41,47.59359,-54.27349
2023-07-17 02:24:00+00:00,212.0,5.86,213.0,6.41,12.41,47.59359,-54.27349
2023-07-17 02:34:00+00:00,223.0,6.65,238.0,10.56,12.41,47.59359,-54.27349
2023-07-17 02:44:00+00:00,232.0,7.55,242.0,10.93,12.41,47.59359,-54.27349
2023-07-17 02:54:00+00:00,226.0,7.01,239.0,10.37,12.41,47.59359,-54.27349
2023-07-17 03:04:00+00:00,230.0,7.56,240.0,10.76,12.41,47.59359,-54.27349
2023-07-17 03:14:01+00:00,241.0,9.47,241.0,10.94,12.41,47.59359,-54.27349
2023-07-17 03:24:01+00:00,229.0,6.97,241.0,10.47,12.41,47.59359,-54.27349
2023-07-17 03:34:01+00:00,233.0,7.46,242.0,10.55,12.41,47.59359,-54.27349
2023-07-17 03:44:01+00:00,224.0,5.76,235.0,7.19,12.41,47.59359,-54.27349
2023-07-17 03:54:01+00:00,227.0,6.31,241.0,8.97,12.41,47.59359,-54.27349
2023-07-17 04:04:01+00:00,229.0,4.99,237.0,6.49,12.41,47.59359,-54.27349
2023-07-17 04:14:00+00:00,212.0,4.37,216.0,5.01,12.33,47.59359,-54.27349
2023-07-17 04:24:00+00:00,212.0,4.21,212.0,5.05,12.33,47.59359,-54.27349
2023-07-17 04:34:00+00:00,214.0,4.07,215.0,4.81,12.33,47.59359,-54.27349
2023-07-17 04:44:00+00:00,224.0,5.58,234.0,6.19,12.33,47.59359,-54.27349
2023-07-17 04:54:00+00:00,225.0,5.86,239.0,8.46,12.33,47.59359,-54.27349
2023-07-17 05:04:00+00:00,223.0,5.17,219.0,5.99,12.33,47.59359,-54.27349
2023-07-17 05:14:00+00:00,213.0,5.88,214.0,6.37,12.33,47.59359,-54.27349
2023-07-17 05:24:00+00:00,212.0,5.38,211.0,5.93,12.33,47.59359,-54.27349
2023-07-17 05:34:00+00:00,218.0,3.96,218.0,4.53,12.33,47.59359,-54.27349
2023-07-17 05:44:00+00:00,212.0,5.33,216.0,6.04,12.33,47.59359,-54.27349
2023-07-17 05:54:00+00:00,218.0,4.89,218.0,5.76,12.33,47.59359,-54.27349
2023-07-17 06:04:00+00:00,224.0,4.33,225.0,5.49,12.33,47.59359,-54.27349
2023-07-17 06:14:00+00:00,213.0,4.01,214.0,4.95,12.33,47.59359,-54.27349
2023-07-17 06:24:00+00:00,211.0,4.82,211.0,5.24,12.33,47.59359,-54.27349
2023-07-17 06:34:00+00:00,207.0,5.83,210.0,6.57,12.33,47.59359,-54.27349
2023-07-17 06:44:00+00:00,214.0,4.19,213.0,4.96,12.33,47.59359,-54.27349
2023-07-17 06:54:00+00:00,214.0,5.14,214.0,5.8,12.33,47.59359,-54.27349
2023-07-17 07:04:00+00:00,221.0,5.21,221.0,5.58,12.33,47.59359,-54.27349
2023-07-17 07:14:01+00:00,221.0,5.12,217.0,5.87,12.25,47.59359,-54.27349
2023-07-17 07:24:01+00:00,223.0,5.34,229.0,6.43,12.25,47.59359,-54.27349
2023-07-17 07:34:01+00:00,211.0,4.72,212.0,5.22,12.25,47.59359,-54.27349
2023-07-17 07:44:01+00:00,195.0,5.96,198.0,6.54,12.25,47.59359,-54.27349
2023-07-17 07:54:01+00:00,207.0,5.64,208.0,6.16,12.25,47.59359,-54.27349
2023-07-17 08:04:01+00:00,212.0,4.96,211.0,5.58,12.25,47.59359,-54.27349
2023-07-17 08:14:01+00:00,207.0,4.93,205.0,5.47,12.25,47.59359,-54.27349
2023-07-17 08:24:01+00:00,196.0,3.0,200.0,3.42,12.25,47.59359,-54.27349
2023-07-17 08:34:01+00:00,207.0,3.61,208.0,4.34,12.25,47.59359,-54.27349
2023-07-17 08:44:01+00:00,208.0,4.11,210.0,4.41,12.25,47.59359,-54.27349
2023-07-17 08:54:01+00:00,206.0,3.58,209.0,3.84,12.25,47.59359,-54.27349
2023-07-17 09:04:01+00:00,198.0,3.94,200.0,4.27,12.25,47.59359,-54.27349
2023-07-17 09:14:00+00:00,206.0,3.61,214.0,4.79,12.33,47.59359,-54.27349
2023-07-17 09:24:00+00:00,216.0,5.72,216.0,6.29,12.33,47.59359,-54.27349
2023-07-17 09:34:00+00:00,219.0,5.18,217.0,5.7,12.33,47.59359,-54.27349
2023-07-17 09:44:00+00:00,231.0,4.78,233.0,5.56,12.33,47.59359,-54.27349
2023-07-17 09:54:00+00:00,219.0,4.96,220.0,5.39,12.33,47.59359,-54.27349
2023-07-17 10:04:00+00:00,218.0,4.29,222.0,4.66,12.33,47.59359,-54.27349
2023-07-17 10:14:00+00:00,207.0,4.08,212.0,4.85,13.13,47.59359,-54.27349
2023-07-17 10:24:00+00:00,202.0,5.79,204.0,6.32,13.13,47.59359,-54.27349
2023-07-17 10:34:00+00:00,205.0,5.11,204.0,5.61,13.13,47.59359,-54.27349
2023-07-17 10:44:00+00:00,205.0,5.58,208.0,6.08,13.13,47.59359,-54.27349
2023-07-17 10:54:00+00:00,217.0,5.87,217.0,6.29,13.13,47.59359,-54.27349
2023-07-17 11:04:00+00:00,216.0,4.67,215.0,5.14,13.13,47.59359,-54.27349
2023-07-17 11:14:00+00:00,196.0,4.81,198.0,5.25,13.6,47.59359,-54.27349
2023-07-17 11:24:00+00:00,205.0,5.59,207.0,6.07,13.6,47.59359,-54.27349
2023-07-17 11:34:00+00:00,208.0,4.63,211.0,5.49,13.6,47.59359,-54.27349
2023-07-17 11:44:00+00:00,198.0,4.26,196.0,5.04,13.6,47.59359,-54.27349
2023-07-17 11:54:00+00:00,214.0,5.72,216.0,6.23,13.6,47.59359,-54.27349
2023-07-17 12:04:00+00:00,210.0,6.09,214.0,6.73,13.6,47.59359,-54.27349
2023-07-17 12:14:00+00:00,207.0,6.61,207.0,7.06,13.68,47.59359,-54.27349
2023-07-17 12:24:00+00:00,204.0,6.23,203.0,6.82,13.68,47.59359,-54.27349
2023-07-17 12:34:00+00:00,202.0,6.11,202.0,6.63,13.68,47.59359,-54.27349
2023-07-17 12:44:00+00:00,206.0,6.7,206.0,7.25,13.68,47.59359,-54.27349
2023-07-17 12:54:00+00:00,217.0,8.0,225.0,9.12,13.68,47.59359,-54.27349
2023-07-17 13:04:00+00:00,212.0,7.09,224.0,8.71,13.68,47.59359,-54.27349
2023-07-17 13:14:01+00:00,211.0,6.6,216.0,7.51,13.68,47.59359,-54.27349
2023-07-17 13:24:01+00:00,205.0,7.33,199.0,7.94,13.68,47.59359,-54.27349
2023-07-17 13:34:01+00:00,206.0,7.42,210.0,8.21,13.68,47.59359,-54.27349
2023-07-17 13:44:01+00:00,223.0,9.62,231.0,11.62,13.68,47.59359,-54.27349
2023-07-17 13:54:01+00:00,220.0,9.42,230.0,11.51,13.68,47.59359,-54.27349
2023-07-17 14:04:01+00:00,212.0,8.34,220.0,9.82,13.68,47.59359,-54.27349
2023-07-17 14:14:00+00:00,220.0,9.1,229.0,11.25,14.0,47.59359,-54.27349
2023-07-17 14:24:00+00:00,222.0,9.76,228.0,11.59,14.0,47.59359,-54.27349
2023-07-17 14:34:00+00:00,224.0,10.56,230.0,12.25,14.0,47.59359,-54.27349
2023-07-17 14:44:00+00:00,219.0,8.79,230.0,11.26,14.0,47.59359,-54.27349
2023-07-17 14:54:00+00:00,214.0,8.36,225.0,10.4,14.0,47.59359,-54.27349
2023-07-17 15:04:00+00:00,219.0,8.8,228.0,11.09,14.0,47.59359,-54.27349
2023-07-17 15:14:00+00:00,204.0,8.86,219.0,10.99,13.84,47.59359,-54.27349
2023-07-17 15:24:00+00:00,206.0,8.47,222.0,10.42,13.84,47.59359,-54.27349
2023-07-17 15:34:00+00:00,200.0,8.65,202.0,9.19,13.84,47.59359,-54.27349
2023-07-17 15:44:00+00:00,197.0,8.17,199.0,8.91,13.84,47.59359,-54.27349
2023-07-17 15:54:00+00:00,196.0,7.97,198.0,8.91,13.84,47.59359,-54.27349
2023-07-17 16:04:00+00:00,201.0,8.54,209.0,9.5,13.84,47.59359,-54.27349
2023-07-17 16:14:00+00:00,209.0,8.86,220.0,10.95,14.32,47.59359,-54.27349
2023-07-17 16:24:00+00:00,221.0,10.76,226.0,12.2,14.32,47.59359,-54.27349
2023-07-17 16:34:00+00:00,223.0,11.18,225.0,12.51,14.32,47.59359,-54.27349
2023-07-17 16:44:00+00:00,218.0,11.0,228.0,12.87,14.32,47.59359,-54.27349
2023-07-17 16:54:00+00:00,210.0,10.53,218.0,12.31,14.32,47.59359,-54.27349
2023-07-17 17:04:00+00:00,213.0,10.48,225.0,12.7,14.32,47.59359,-54.27349
2023-07-17 17:14:00+00:00,213.0,10.09,227.0,12.23,14.24,47.59359,-54.27349
2023-07-17 17:24:00+00:00,213.0,9.99,224.0,12.3,14.24,47.59359,-54.27349
2023-07-17 17:34:00+00:00,223.0,11.14,227.0,12.73,14.24,47.59359,-54.27349
2023-07-17 17:44:00+00:00,227.0,10.88,230.0,13.03,14.24,47.59359,-54.27349
2023-07-17 17:54:00+00:00,226.0,11.22,230.0,12.86,14.24,47.59359,-54.27349
2023-07-17 18:04:00+00:00,225.0,11.43,230.0,13.13,14.24,47.59359,-54.27349
2023-07-17 18:14:00+00:00,222.0,10.61,228.0,12.07,13.92,47.59359,-54.27349
2023-07-17 18:24:00+00:00,227.0,9.88,232.0,11.9,13.92,47.59359,-54.27349
2023-07-17 18:34:00+00:00,228.0,10.87,230.0,12.25,13.92,47.59359,-54.27349
2023-07-17 18:44:00+00:00,221.0,9.51,230.0,11.93,13.92,47.59359,-54.27349
2023-07-17 18:54:00+00:00,219.0,9.55,229.0,11.85,13.92,47.59359,-54.27349
2023-07-17 19:04:00+00:00,203.0,8.01,213.0,8.86,13.92,47.59359,-54.27349
2023-07-17 19:14:00+00:00,315.0,0.01,187.0,0.0,13.6,47.59359,-54.27349
2023-07-17 19:24:00+00:00,211.0,8.52,227.0,10.75,13.6,47.59359,-54.27349
2023-07-17 19:34:00+00:00,213.0,8.57,223.0,9.84,13.6,47.59359,-54.27349
2023-07-17 19:44:00+00:00,199.0,8.14,202.0,9.07,13.6,47.59359,-54.27349
2023-07-17 19:54:00+00:00,198.0,8.09,198.0,8.98,13.6,47.59359,-54.27349
2023-07-17 20:04:00+00:00,207.0,8.1,227.0,10.32,13.6,47.59359,-54.27349
2023-07-17 20:14:01+00:00,204.0,8.76,218.0,10.94,13.68,47.59359,-54.27349
2023-07-17 20:24:01+00:00,201.0,7.78,205.0,8.7,13.68,47.59359,-54.27349
2023-07-17 20:34:01+00:00,202.0,7.48,204.0,8.28,13.68,47.59359,-54.27349
2023-07-17 20:44:01+00:00,208.0,7.72,213.0,9.12,13.68,47.59359,-54.27349
2023-07-17 20:54:01+00:00,218.0,8.83,231.0,11.41,13.68,47.59359,-54.27349
2023-07-17 21:04:01+00:00,208.0,7.9,210.0,8.7,13.68,47.59359,-54.27349
2023-07-17 21:14:00+00:00,213.0,7.15,213.0,7.98,13.53,47.59359,-54.27349
2023-07-17 21:24:00+00:00,212.0,7.74,228.0,9.98,13.53,47.59359,-54.27349
2023-07-17 21:34:00+00:00,215.0,8.81,228.0,10.97,13.53,47.59359,-54.27349
2023-07-17 21:44:00+00:00,225.0,10.16,233.0,12.24,13.53,47.59359,-54.27349
2023-07-17 21:54:00+00:00,224.0,9.7,230.0,11.74,13.53,47.59359,-54.27349
2023-07-17 22:04:00+00:00,228.0,9.13,234.0,11.25,13.53,47.59359,-54.27349
2023-07-17 22:14:01+00:00,222.0,9.22,233.0,11.45,13.13,47.59359,-54.27349
2023-07-17 22:24:01+00:00,213.0,7.93,233.0,11.4,13.13,47.59359,-54.27349
2023-07-17 22:34:01+00:00,207.0,7.62,218.0,8.97,13.13,47.59359,-54.27349
2023-07-17 22:44:01+00:00,206.0,7.07,209.0,7.68,13.13,47.59359,-54.27349
2023-07-17 22:54:01+00:00,216.0,7.79,231.0,9.89,13.13,47.59359,-54.27349
2023-07-17 23:04:01+00:00,206.0,6.74,206.0,7.35,13.13,47.59359,-54.27349
2023-07-17 23:14:00+00:00,206.0,7.11,214.0,7.84,12.65,47.59359,-54.27349
2023-07-17 23:24:00+00:00,209.0,6.13,209.0,6.76,12.65,47.59359,-54.27349
2023-07-17 23:34:00+00:00,204.0,5.51,199.0,6.22,12.65,47.59359,-54.27349
2023-07-17 23:44:00+00:00,211.0,5.58,213.0,6.35,12.65,47.59359,-54.27349
2023-07-17 23:54:00+00:00,207.0,6.05,215.0,7.23,12.65,47.59359,-54.27349
